SCP
1 1 1 1 1 1 1 1 1 1 1 0 0 0 0 0 0 0 0 0 0 0 0 0 0 0 0 -0 -0 0 0 0 0 0 0 0 0 0 0 0 0 0 0
0 1 1 1 0 1 1 0 0 0 0 0 0 0 0 0 0 0 0 0 0 0 0 0 0 0 -0 0 -0 -0 0 0 0 0 0 0 0 0 0 0 0 0 0
0 0 0 0 0 0 0 0 0 0 0 0 0 0 0 0 0 0 0 0 0 0 0 0 0 -0 -0 -0 0 0 0 0 0 0 0 0 0 0 0 0 0 0 0
0 0 0 0 0 0 0 0 0 0 0 0 0 0 0 0 0 0 0 0 0 0 0 0 0 0 -0 0 -0 -0 -0 0 0 0 0 0 0 0 0 0 0 0 0
0 0 0 0 0 0 0 0 0 0 0 0 0 0 0 0 0 0 0 0 -0 0 0 0 0 0 -0 -0 0 0 -0 0 0 0 0 0 0 0 0 0 0 0 0
0 0 0 0 0 0 0 0 0 0 0 0 0 0 0 0 0 0 0 -0 0 0 0 0 0 0 0 0 -0 0 0 -0 0 0 0 0 0 0 0 0 0 0 0
0 0 0 0 0 0 0 0 0 0 0 0 0 0 0 0 0 0 0 0 0 0 0 0 0 -0 0 0 0 0 -0 -0 -0 0 0 0 0 0 0 0 0 0 0
0 0 0 0 0 0 0 0 0 0 0 0 0 0 0 0 0 0 0 0 0 0 0 0 0 0 -0 0 0 0 0 0 0 0 0 0 0 0 0 0 0 0 0
0 0 0 0 0 0 0 0 0 0 0 0 0 0 0 0 0 0 0 0 0 0 0 0 0 0 0 0 0 0 0 0 -0 -0 -0 0 0 0 0 0 0 0 0
0 0 0 0 0 0 0 0 0 0 0 0 0 0 0 -0 0 0 0 0 0 0 0 0 0 0 -0 0 0 0 0 0 0 0 0 0 0 0 0 0 0 0 0
0 0 0 0 0 0 0 0 0 0 0 0 0 0 0 -0 0 0 0 0 0 0 0 0 0 0 -0 -0 0 0 0 0 0 0 0 0 0 0 0 0 0 0 0
0 0 -0 -0 0 0 0 0 0 -0 -0 0 0 0 0 0 0 0 0 0 0 0 0 0 -0 0 -0 -0 0 0 0 0 0 0 0 0 0 0 0 0 0 0 0
0 -0 -0 0 0 0 -0 0 -0 -0 -0 -0 0 0 0 0 0 0 0 0 0 0 0 -0 -0 -0 -0 -0 0 0 0 0 0 0 0 0 0 0 0 0 0 0 0
0 -0 -0 -0 0 -0 -0 -0 -0 -0 0 0 0 -0 0 0 0 0 0 0 0 0 -0 -0 -0 -0 -0 0 0 0 0 0 0 0 0 0 0 0 0 0 0 0 0
0 -0 -0 -0 0 0 -0 -0 -0 0 0 0 0 0 0 0 0 0 0 0 0 -0 -0 0 0 0 -0 0 0 0 0 0 0 0 0 0 0 0 0 0 0 0 0
0 0 -0 -0 -0 -0 -0 -0 -0 -0 -0 -0 -0 0 0 -0 -0 -0 -0 -0 -0 -0 0 0 -0 0 0 0 0 0 0 0 0 0 0 0 0 0 0 0 0 0 0
0 0 -0 0 0 0 -0 -0 -0 0 -0 -0 0 0 0 -0 -0 -0 -0 -0 -0 0 -0 -0 0 0 0 0 0 0 0 0 0 0 0 0 0 0 0 0 0 0 0
0 0 0 -0 0 -0 -0 -0 -0 -0 -0 0 0 0 0 -0 -0 -0 -0 -0 -0 0 -0 -0 0 0 -0 0 0 0 0 0 0 0 0 -0 -0 0 0 0 0 0 0
0 0 -0 -0 0 0 0 -0 -0 -0 0 0 -0 0 0 -0 0 0 0 0 0 0 -0 0 -0 0 -0 0 0 -0 0 0 0 0 0 0 0 -0 0 0 0 0 -0
0 0 0 -0 0 0 -0 -0 -0 0 -0 -0 -0 0 0 0 0 0 0 0 0 0 0 0 0 0 0 0 -0 0 -0 -0 0 0 -0 0 0 0 0 0 0 -0 -0
0 0 0 0 0 -0 0 0 0 -0 0 0 -0 -0 -0 -0 -0 -0 -0 0 0 0 0 0 0 0 0 0 0 0 0 0 0 0 0 0 0 -0 -0 -0 0 -0 -0
0 0 0 0 0 -0 0 0 0 0 0 -0 -0 -0 -0 0 -0 -0 0 0 0 0 -0 -0 0 0 0 0 0 0 0 0 0 0 0 0 -0 0 -0 -0 0 -0 -0
1 0 0 0 0 0 0 0 0 0 0 0 -0 -0 0 0 0 -0 -0 -0 0 0 -0 0 0 0 0 -0 0 -0 -0 -0 -0 0 0 -0 -0 -0 0 -0 -0 -0 -0
1 0 0 0 0 0 0 0 0 0 0 0 0 0 0 -0 0 0 -0 -0 -0 -0 0 -0 -0 -0 -0 0 0 -0 0 0 -0 0 -0 0 0 -0 -0 -0 0 0 0
0 0 0 0 0 0 0 0 0 0 0 0 0 0 0 0 0 0 0 0 0 0 0 0 0 0 0 -0 -0 -0 -0 -0 0 0 0 -0 0 0 -0 -0 0 -0 -0
0 0 0 0 0 0 0 0 0 0 0 0 0 0 0 0 0 0 0 0 0 0 0 0 -0 -0 -0 -0 -0 0 0 0 0 0 0 0 0 0 0 0 0 0 0
Wind_Speed_500mb
44 45 46 43 40 39 39 34 33 30 29 26 25 23 23 24 22 20 17 14 16 18 14 20 17 18 17 22 24 16 13 6 13 17 22 25 29 29 34 32 32 34 32
46 45 44 43 41 39 35 32 29 27 26 24 23 23 22 20 20 18 15 18 18 14 18 17 19 16 20 25 29 23 20 16 21 22 22 26 29 31 34 33 37 36 38
46 46 44 42 39 36 33 30 28 26 24 24 24 23 25 24 20 16 18 15 13 15 16 12 15 17 19 15 25 16 19 16 20 25 26 27 31 35 40 38 37 38 39
47 45 44 40 37 34 30 27 27 25 25 25 24 23 21 19 17 19 16 12 15 11 9 7 11 20 21 21 20 19 21 21 23 24 20 32 37 38 35 39 46 42 46
45 43 40 37 35 32 29 28 29 27 27 24 22 21 23 23 19 16 14 15 13 12 13 12 2 15 21 30 20 22 28 25 24 22 27 31 40 42 42 49 54 50 48
43 40 38 36 34 31 28 30 31 26 23 26 28 25 21 22 22 23 17 15 15 16 10 8 5 11 16 21 17 17 30 28 26 26 22 36 40 46 45 54 57 59 59
41 39 36 35 33 31 27 26 31 29 27 28 28 25 26 22 17 14 13 16 20 13 13 13 8 10 9 19 22 18 29 19 11 13 27 39 41 45 54 56 55 63 60
39 37 34 34 31 29 27 26 30 32 29 28 30 25 20 20 15 9 12 13 14 11 15 9 8 11 8 8 23 24 27 18 13 16 17 29 27 38 53 56 63 62 59
38 35 34 33 31 28 26 26 25 30 30 28 26 24 19 19 13 9 15 11 12 12 9 14 11 11 14 13 15 22 26 24 27 23 17 17 22 36 56 69 59 63 69
38 35 34 31 28 26 28 23 26 28 30 29 27 23 21 19 17 14 17 15 10 14 6 8 10 17 20 25 24 23 29 28 29 24 22 22 21 36 52 49 53 62 71
38 34 33 31 27 25 22 21 23 25 28 29 27 22 17 18 21 16 22 15 11 10 8 4 7 9 13 30 30 23 25 28 29 29 30 29 32 36 49 51 56 53 66
39 35 35 31 26 22 21 18 22 25 31 32 26 20 19 24 16 16 21 18 16 10 10 12 9 10 16 24 27 31 34 29 33 37 36 36 38 40 40 45 48 48 52
42 39 36 33 29 24 21 20 19 24 27 27 27 22 21 16 17 16 17 16 15 11 13 14 10 12 16 20 25 34 40 33 35 44 43 36 34 38 40 41 38 48 37
44 42 38 34 29 21 20 15 21 17 21 20 22 22 20 18 16 16 12 9 12 15 15 16 13 11 18 21 26 39 52 34 36 46 43 36 35 44 38 44 39 49 25
46 43 37 33 30 24 22 20 18 19 17 17 17 19 20 20 19 18 14 13 16 15 20 21 19 16 22 32 36 43 46 39 32 45 44 40 43 40 33 48 44 37 24
47 43 38 34 31 27 19 18 16 10 18 19 19 19 17 18 21 17 13 14 15 19 26 25 20 24 30 30 36 40 41 41 35 40 43 46 47 42 41 44 36 27 23
47 43 37 32 29 32 19 15 14 18 21 22 18 21 14 21 19 18 17 17 22 25 26 24 22 26 28 26 31 36 40 41 38 38 44 47 47 37 40 36 31 27 27
41 42 36 32 30 25 21 18 16 19 18 18 23 21 14 15 20 24 22 25 26 30 25 28 17 24 26 27 25 34 38 39 38 34 39 45 38 44 38 33 29 26 27
41 40 34 30 27 25 23 21 21 19 19 20 23 23 21 26 27 27 29 22 17 21 24 27 26 16 25 26 22 32 34 40 44 40 41 40 41 37 36 31 29 33 32
39 38 34 31 29 26 25 23 25 22 26 19 20 21 30 34 34 35 32 24 16 18 20 24 31 22 24 22 24 30 28 30 34 35 35 36 34 33 32 33 34 35 37
35 35 39 32 31 29 27 25 23 24 25 19 21 23 23 26 25 27 19 15 21 19 19 17 26 28 26 23 21 25 30 30 31 35 39 34 31 33 34 34 35 36 35
33 30 38 33 32 30 29 26 25 24 22 21 29 18 20 31 18 18 20 16 18 15 15 16 22 21 26 28 29 29 30 31 29 28 33 33 34 34 36 38 37 37 39
25 35 40 33 32 31 27 28 26 24 24 24 26 21 29 28 22 18 16 17 18 17 16 15 16 16 17 20 25 27 31 31 30 32 34 38 38 37 37 38 39 42 45
22 16 43 38 35 32 30 28 28 24 25 23 25 18 26 21 10 15 14 15 14 15 16 16 16 16 16 17 19 22 24 26 29 35 38 42 43 42 45 45 46 47 50
41 31 42 35 31 37 32 21 27 29 19 23 29 25 21 20 16 12 14 11 12 12 12 10 12 15 22 31 33 32 32 33 34 32 29 35 40 41 43 45 47 50 52
34 49 36 36 39 39 39 31 35 38 31 34 38 39 39 31 29 34 29 25 16 17 21 26 27 34 31 35 40 39 37 36 41 48 51 42 37 41 45 49 52 55 57
Wind_Direction_500mb
162 161 163 160 162 160 155 161 164 167 172 179 190 203 205 207 207 202 199 206 213 232 205 238 246 240 224 216 216 218 189 223 188 177 179 166 173 175 178 183 178 179 172
162 162 158 156 155 154 158 162 165 168 178 184 192 195 194 196 192 194 203 208 220 225 230 251 236 221 214 216 215 212 223 224 193 164 171 168 174 177 178 174 170 177 176
161 157 154 152 154 155 159 165 169 173 176 180 183 187 190 195 194 195 202 212 216 231 236 234 225 231 213 198 191 216 212 204 180 170 156 174 160 166 171 175 175 172 174
158 156 154 155 157 157 160 163 166 170 170 175 177 185 177 180 188 198 202 207 222 217 193 200 236 207 206 202 211 212 195 180 166 153 161 167 158 171 175 174 171 170 165
157 156 156 156 153 153 158 162 169 168 178 177 169 163 178 189 183 199 206 215 198 169 190 127 146 205 211 201 203 193 181 155 154 156 171 169 171 170 175 173 168 164 166
158 158 155 154 154 155 161 170 168 167 172 164 173 170 169 178 195 209 221 188 171 190 168 144 89 143 178 192 202 188 170 191 177 176 167 174 174 176 178 170 171 163 160
159 158 157 155 157 159 165 167 171 174 174 173 176 175 176 182 184 191 188 162 191 179 162 178 124 120 148 190 195 175 173 185 170 170 175 177 180 183 183 179 174 172 166
161 159 159 157 159 163 168 176 175 181 178 176 174 171 169 175 186 185 181 180 168 178 178 193 177 120 152 148 179 179 177 169 165 147 182 194 192 193 191 184 180 175 165
162 161 160 161 162 167 172 182 181 184 174 169 163 166 161 183 189 181 162 165 176 152 172 193 204 197 180 153 162 164 163 173 170 175 194 178 196 185 188 180 179 171 166
162 158 158 160 162 168 171 172 186 176 171 162 166 170 175 188 197 179 170 161 154 143 159 191 211 221 219 184 172 174 174 174 176 172 152 147 141 167 187 184 180 176 172
160 156 157 157 158 163 167 173 168 166 170 167 170 173 176 199 202 203 187 160 161 161 178 188 213 198 193 189 179 179 176 184 172 162 154 150 148 169 182 185 176 188 176
161 158 157 156 158 159 161 166 164 170 170 168 170 167 181 193 204 189 181 181 176 173 193 195 215 201 186 192 194 184 181 188 178 169 159 156 156 166 177 182 182 179 179
162 159 157 156 151 155 150 165 164 169 170 173 165 163 162 179 192 176 187 198 194 198 208 212 203 198 192 204 194 183 180 191 184 170 168 159 163 159 166 176 172 175 179
163 162 160 162 158 155 151 155 173 167 164 175 174 169 169 177 176 183 203 194 196 207 208 195 189 190 168 174 174 171 172 184 179 174 173 168 162 169 170 172 172 166 154
166 166 165 163 163 163 171 158 161 157 174 176 174 167 178 190 187 189 184 173 171 199 180 177 165 160 157 154 154 166 176 163 165 176 176 170 159 161 176 175 165 174 177
167 168 171 162 170 172 165 176 183 195 189 183 161 159 188 198 206 208 202 179 174 168 166 161 156 155 146 155 162 169 178 168 173 174 174 171 161 165 163 175 173 181 190
171 170 171 168 169 170 161 163 167 173 174 175 176 182 212 203 207 176 168 164 152 154 163 146 158 161 156 156 165 171 176 179 177 181 177 175 169 168 172 177 187 197 201
173 176 173 175 172 171 168 162 157 155 150 181 197 203 195 170 160 155 156 151 142 159 165 155 159 162 163 159 161 168 172 171 175 178 182 174 177 186 183 193 202 207 209
174 178 180 182 177 173 168 167 152 150 159 164 193 190 179 160 156 153 145 143 159 169 179 177 159 156 150 150 166 166 168 172 172 170 173 179 189 187 195 203 208 213 216
181 179 181 181 169 174 174 174 161 157 157 166 166 184 180 169 165 153 144 147 163 167 171 177 167 170 170 165 164 162 169 163 173 179 183 185 192 198 206 211 216 221 225
177 176 186 186 177 180 175 174 174 168 167 164 166 185 185 170 176 176 174 200 164 167 167 180 179 179 177 180 187 179 184 183 191 193 196 198 209 204 213 219 223 227 231
179 177 186 193 180 184 179 178 174 179 180 171 165 173 157 152 177 191 193 183 172 178 182 172 170 182 192 191 190 194 195 202 205 207 208 211 214 219 224 228 230 233 237
184 179 183 195 186 186 183 185 180 177 177 177 168 184 170 174 186 181 188 192 188 181 182 181 183 185 194 200 199 210 210 209 212 213 217 218 221 227 230 234 238 241 244
198 230 176 189 191 185 186 191 183 182 175 173 170 158 177 189 190 175 180 182 190 196 198 198 200 204 203 208 215 220 225 226 228 228 228 232 234 236 238 243 246 248 250
194 192 168 176 166 175 176 183 179 171 180 175 159 154 163 168 176 181 182 183 186 195 193 209 221 220 221 217 215 214 223 229 227 226 232 239 242 247 249 250 252 254 257
205 188 168 166 166 166 167 174 163 162 148 128 144 149 161 166 167 179 174 159 159 164 190 212 212 219 219 219 224 232 235 239 245 246 240 238 246 250 253 255 257 259 260
Wind_Speed_850mb
44 45 46 43 40 39 39 34 33 30 29 26 25 23 23 24 22 20 17 14 16 18 14 20 17 18 17 22 24 16 13 6 13 17 22 25 29 29 34 32 32 34 32
46 45 44 43 41 39 35 32 29 27 26 24 23 23 22 20 20 18 15 18 18 14 18 17 19 16 20 25 29 23 20 16 21 22 22 26 29 31 34 33 37 36 38
46 46 44 42 39 36 33 30 28 26 24 24 24 23 25 24 20 16 18 15 13 15 16 12 15 17 19 15 25 16 19 16 20 25 26 27 31 35 40 38 37 38 39
47 45 44 40 37 34 30 27 27 25 25 25 24 23 21 19 17 19 16 12 15 11 9 7 11 20 21 21 20 19 21 21 23 24 20 32 37 38 35 39 46 42 46
45 43 40 37 35 32 29 28 29 27 27 24 22 21 23 23 19 16 14 15 13 12 13 12 2 15 21 30 20 22 28 25 24 22 27 31 40 42 42 49 54 50 48
43 40 38 36 34 31 28 30 31 26 23 26 28 25 21 22 22 23 17 15 15 16 10 8 5 11 16 21 17 17 30 28 26 26 22 36 40 46 45 54 57 59 59
41 39 36 35 33 31 27 26 31 29 27 28 28 25 26 22 17 14 13 16 20 13 13 13 8 10 9 19 22 18 29 19 11 13 27 39 41 45 54 56 55 63 60
39 37 34 34 31 29 27 26 30 32 29 28 30 25 20 20 15 9 12 13 14 11 15 9 8 11 8 8 23 24 27 18 13 16 17 29 27 38 53 56 63 62 59
38 35 34 33 31 28 26 26 25 30 30 28 26 24 19 19 13 9 15 11 12 12 9 14 11 11 14 13 15 22 26 24 27 23 17 17 22 36 56 69 59 63 69
38 35 34 31 28 26 28 23 26 28 30 29 27 23 21 19 17 14 17 15 10 14 6 8 10 17 20 25 24 23 29 28 29 24 22 22 21 36 52 49 53 62 71
38 34 33 31 27 25 22 21 23 25 28 29 27 22 17 18 21 16 22 15 11 10 8 4 7 9 13 30 30 23 25 28 29 29 30 29 32 36 49 51 56 53 66
39 35 35 31 26 22 21 18 22 25 31 32 26 20 19 24 16 16 21 18 16 10 10 12 9 10 16 24 27 31 34 29 33 37 36 36 38 40 40 45 48 48 52
42 39 36 33 29 24 21 20 19 24 27 27 27 22 21 16 17 16 17 16 15 11 13 14 10 12 16 20 25 34 40 33 35 44 43 36 34 38 40 41 38 48 37
44 42 38 34 29 21 20 15 21 17 21 20 22 22 20 18 16 16 12 9 12 15 15 16 13 11 18 21 26 39 52 34 36 46 43 36 35 44 38 44 39 49 25
46 43 37 33 30 24 22 20 18 19 17 17 17 19 20 20 19 18 14 13 16 15 20 21 19 16 22 32 36 43 46 39 32 45 44 40 43 40 33 48 44 37 24
47 43 38 34 31 27 19 18 16 10 18 19 19 19 17 18 21 17 13 14 15 19 26 25 20 24 30 30 36 40 41 41 35 40 43 46 47 42 41 44 36 27 23
47 43 37 32 29 32 19 15 14 18 21 22 18 21 14 21 19 18 17 17 22 25 26 24 22 26 28 26 31 36 40 41 38 38 44 47 47 37 40 36 31 27 27
41 42 36 32 30 25 21 18 16 19 18 18 23 21 14 15 20 24 22 25 26 30 25 28 17 24 26 27 25 34 38 39 38 34 39 45 38 44 38 33 29 26 27
41 40 34 30 27 25 23 21 21 19 19 20 23 23 21 26 27 27 29 22 17 21 24 27 26 16 25 26 22 32 34 40 44 40 41 40 41 37 36 31 29 33 32
39 38 34 31 29 26 25 23 25 22 26 19 20 21 30 34 34 35 32 24 16 18 20 24 31 22 24 22 24 30 28 30 34 35 35 36 34 33 32 33 34 35 37
35 35 39 32 31 29 27 25 23 24 25 19 21 23 23 26 25 27 19 15 21 19 19 17 26 28 26 23 21 25 30 30 31 35 39 34 31 33 34 34 35 36 35
33 30 38 33 32 30 29 26 25 24 22 21 29 18 20 31 18 18 20 16 18 15 15 16 22 21 26 28 29 29 30 31 29 28 33 33 34 34 36 38 37 37 39
25 35 40 33 32 31 27 28 26 24 24 24 26 21 29 28 22 18 16 17 18 17 16 15 16 16 17 20 25 27 31 31 30 32 34 38 38 37 37 38 39 42 45
22 16 43 38 35 32 30 28 28 24 25 23 25 18 26 21 10 15 14 15 14 15 16 16 16 16 16 17 19 22 24 26 29 35 38 42 43 42 45 45 46 47 50
41 31 42 35 31 37 32 21 27 29 19 23 29 25 21 20 16 12 14 11 12 12 12 10 12 15 22 31 33 32 32 33 34 32 29 35 40 41 43 45 47 50 52
34 49 36 36 39 39 39 31 35 38 31 34 38 39 39 31 29 34 29 25 16 17 21 26 27 34 31 35 40 39 37 36 41 48 51 42 37 41 45 49 52 55 57
Wind_Direction_850mb
162 161 163 160 162 160 155 161 164 167 172 179 190 203 205 207 207 202 199 206 213 232 205 238 246 240 224 216 216 218 189 223 188 177 179 166 173 175 178 183 178 179 172
162 162 158 156 155 154 158 162 165 168 178 184 192 195 194 196 192 194 203 208 220 225 230 251 236 221 214 216 215 212 223 224 193 164 171 168 174 177 178 174 170 177 176
161 157 154 152 154 155 159 165 169 173 176 180 183 187 190 195 194 195 202 212 216 231 236 234 225 231 213 198 191 216 212 204 180 170 156 174 160 166 171 175 175 172 174
158 156 154 155 157 157 160 163 166 170 170 175 177 185 177 180 188 198 202 207 222 217 193 200 236 207 206 202 211 212 195 180 166 153 161 167 158 171 175 174 171 170 165
157 156 156 156 153 153 158 162 169 168 178 177 169 163 178 189 183 199 206 215 198 169 190 127 146 205 211 201 203 193 181 155 154 156 171 169 171 170 175 173 168 164 166
158 158 155 154 154 155 161 170 168 167 172 164 173 170 169 178 195 209 221 188 171 190 168 144 89 143 178 192 202 188 170 191 177 176 167 174 174 176 178 170 171 163 160
159 158 157 155 157 159 165 167 171 174 174 173 176 175 176 182 184 191 188 162 191 179 162 178 124 120 148 190 195 175 173 185 170 170 175 177 180 183 183 179 174 172 166
161 159 159 157 159 163 168 176 175 181 178 176 174 171 169 175 186 185 181 180 168 178 178 193 177 120 152 148 179 179 177 169 165 147 182 194 192 193 191 184 180 175 165
162 161 160 161 162 167 172 182 181 184 174 169 163 166 161 183 189 181 162 165 176 152 172 193 204 197 180 153 162 164 163 173 170 175 194 178 196 185 188 180 179 171 166
162 158 158 160 162 168 171 172 186 176 171 162 166 170 175 188 197 179 170 161 154 143 159 191 211 221 219 184 172 174 174 174 176 172 152 147 141 167 187 184 180 176 172
160 156 157 157 158 163 167 173 168 166 170 167 170 173 176 199 202 203 187 160 161 161 178 188 213 198 193 189 179 179 176 184 172 162 154 150 148 169 182 185 176 188 176
161 158 157 156 158 159 161 166 164 170 170 168 170 167 181 193 204 189 181 181 176 173 193 195 215 201 186 192 194 184 181 188 178 169 159 156 156 166 177 182 182 179 179
162 159 157 156 151 155 150 165 164 169 170 173 165 163 162 179 192 176 187 198 194 198 208 212 203 198 192 204 194 183 180 191 184 170 168 159 163 159 166 176 172 175 179
163 162 160 162 158 155 151 155 173 167 164 175 174 169 169 177 176 183 203 194 196 207 208 195 189 190 168 174 174 171 172 184 179 174 173 168 162 169 170 172 172 166 154
166 166 165 163 163 163 171 158 161 157 174 176 174 167 178 190 187 189 184 173 171 199 180 177 165 160 157 154 154 166 176 163 165 176 176 170 159 161 176 175 165 174 177
167 168 171 162 170 172 165 176 183 195 189 183 161 159 188 198 206 208 202 179 174 168 166 161 156 155 146 155 162 169 178 168 173 174 174 171 161 165 163 175 173 181 190
171 170 171 168 169 170 161 163 167 173 174 175 176 182 212 203 207 176 168 164 152 154 163 146 158 161 156 156 165 171 176 179 177 181 177 175 169 168 172 177 187 197 201
173 176 173 175 172 171 168 162 157 155 150 181 197 203 195 170 160 155 156 151 142 159 165 155 159 162 163 159 161 168 172 171 175 178 182 174 177 186 183 193 202 207 209
174 178 180 182 177 173 168 167 152 150 159 164 193 190 179 160 156 153 145 143 159 169 179 177 159 156 150 150 166 166 168 172 172 170 173 179 189 187 195 203 208 213 216
181 179 181 181 169 174 174 174 161 157 157 166 166 184 180 169 165 153 144 147 163 167 171 177 167 170 170 165 164 162 169 163 173 179 183 185 192 198 206 211 216 221 225
177 176 186 186 177 180 175 174 174 168 167 164 166 185 185 170 176 176 174 200 164 167 167 180 179 179 177 180 187 179 184 183 191 193 196 198 209 204 213 219 223 227 231
179 177 186 193 180 184 179 178 174 179 180 171 165 173 157 152 177 191 193 183 172 178 182 172 170 182 192 191 190 194 195 202 205 207 208 211 214 219 224 228 230 233 237
184 179 183 195 186 186 183 185 180 177 177 177 168 184 170 174 186 181 188 192 188 181 182 181 183 185 194 200 199 210 210 209 212 213 217 218 221 227 230 234 238 241 244
198 230 176 189 191 185 186 191 183 182 175 173 170 158 177 189 190 175 180 182 190 196 198 198 200 204 203 208 215 220 225 226 228 228 228 232 234 236 238 243 246 248 250
194 192 168 176 166 175 176 183 179 171 180 175 159 154 163 168 176 181 182 183 186 195 193 209 221 220 221 217 215 214 223 229 227 226 232 239 242 247 249 250 252 254 257
205 188 168 166 166 166 167 174 163 162 148 128 144 149 161 166 167 179 174 159 159 164 190 212 212 219 219 219 224 232 235 239 245 246 240 238 246 250 253 255 257 259 260